Regional Weather Roundup
Issued by NWS

Home | Current Version | Previous Version | Graphics & Text | Print | Product List | Glossary On
Versions: 1 2 3 4 5 6 7 8 9 10 11 12 13 14 15 16 17 18 19 20 21 22 23 24 25 26 27 28 29 30 31 32 33 34 35 36 37 38 39 40 41 42 43 44 45 46 47 48 49 50
000
ASUS43 KLOT 021206
RWRIL

ILLINOIS REGIONAL WEATHER ROUNDUP
NATIONAL WEATHER SERVICE CHICAGO/ROMEOVILLE IL
600 AM CST MON MAR 02 2015

NOTE: "FAIR" INDICATES FEW OR NO CLOUDS BELOW 12,000 FEET WITH NO
SIGNIFICANT WEATHER AND/OR OBSTRUCTIONS TO VISIBILITY.

* THESE STATIONS ARE NOT UNDER NWS QUALITY CONTROL. THEY ALSO MAY NOT
  REPORT WEATHER SUCH AS PRECIPITATION OR FOG.

ILZ001-002-007-009-015-016-024-021300-
NORTHWEST ILLINOIS

CITY           SKY/WX    TMP DP  RH WIND       PRES   REMARKS
MOLINE         PTCLDY     5   1  83 CALM      30.52R
6HR MIN TEMP:   3; 6HR MAX TEMP:  14;

STERLING*      PTCLDY    -2 -11  65 CALM      30.49R
SAVANNA*       PTCLDY     2  -2  82 SW6       30.51R FOG     WCI  -9
$$

ILZ003-004-008-010-011-017-018-021300-
NORTH CENTRAL ILLINOIS

CITY           SKY/WX    TMP DP  RH WIND       PRES   REMARKS
ROCKFORD       PTCLDY     7   2  80 CALM      30.48R
6HR MIN TEMP:   7; 6HR MAX TEMP:  16;

FREEPORT*      MOCLDY     8   5  86 CALM      30.48R
ROCHELLE*      PTCLDY    -5  -8  86 S5        30.49R WCI -16
DE KALB*       PTCLDY     8   4  85 W9        30.47R WCI  -6
PERU*          PTCLDY    10   7  88 W8        30.50S WCI  -2
$$

ILZ005-006-012>014-019>023-021300-
NORTHEAST ILLINOIS

CITY           SKY/WX    TMP DP  RH WIND       PRES   REMARKS
CHICAGO-OHARE  PTCLDY    14   8  77 W10       30.45R WCI   1
6HR MIN TEMP:  14; 6HR MAX TEMP:  19;

CHICAGO-MIDWAY PTCLDY    16   9  74 W7        30.47R WCI   6
6HR MIN TEMP:  16; 6HR MAX TEMP:  20;

AURORA         MOCLDY     4  -1  80 W7        30.48R WCI  -8
6HR MIN TEMP:   2; 6HR MAX TEMP:  12;

LANSING*       PTCLDY     5   3  89 W5        30.47R WCI  -4
JOLIET*        MOCLDY    -3  -6  86 CALM      30.49R
WAUKEGAN       PTCLDY    10   6  84 SW3       30.43S
6HR MIN TEMP:  10; 6HR MAX TEMP:  17;

DUPAGE AIRPORT PTCLDY    11   6  81 W5        30.46R WCI   3
6HR MIN TEMP:   9; 6HR MAX TEMP:  17;

KANKAKEE*      MOCLDY     3   0  85 W8        30.49R WCI -10
WHEELING       PTCLDY    13   6  74 NW3       30.46S
6HR MIN TEMP:  13; 6HR MAX TEMP:  19;

MORRIS*        MOCLDY     1  -1  91 NW10      30.48R WCI -14
ROMEOVILLE*    MOCLDY     5   2  88 W5        30.48R WCI  -4
NORTHERLY ISL    N/A     19  10  68 W12         N/A  WCI   7
$$

LMZ740>746-021300-
SOUTHERN LAKE MICHIGAN

STATION/POSITION SKY/WX   TEMP    WIND        PRES    VSBY  WAVE
                          AIR SEA DIR/SP/G                  HT/PER
                          (F)     (DEG/KT/KT) (MB)    (MI)  (FT/S)
WAUKEGAN HARBOR            17     270/  7/ 14   N/A
HARRISON CRIB              20     290/ 14/ 18   N/A
BURNHAM HARBOR             18     260/ 12/ 15   N/A
CALUMET HARBOR             17     260/  5/  7 1029.9R
MICHIGAN CITY              17     250/ 10/ 11   N/A
$$

ILZ025>027-034>036-040-047-049-050-058-095>099-021300-
WEST-CENTRAL ILLINOIS

CITY           SKY/WX    TMP DP  RH WIND       PRES   REMARKS
QUINCY         MOCLDY    18  15  88 W3        30.51S FOG
GALESBURG*     PTCLDY    10   8  93 W7        30.51R WCI  -1
MACOMB*        PTCLDY     7   5  94 W6        30.54R FOG     WCI  -4
JACKSONVILLE*  MOCLDY    18  16  93 CALM      30.52R FOG
PITTSFIELD*    MOCLDY    13  10  90 SW5       30.54R FOG     WCI   5
$$

ILZ028>032-037-038-041>044-048-051>054-059>061-021300-
CENTRAL ILLINOIS

CITY           SKY/WX    TMP DP  RH WIND       PRES   REMARKS
PONTIAC        PTCLDY     7   4  89 W3        30.50S FOG
BLOOMINGTON    CLOUDY    16  12  84 NW7       30.49R WCI   6
DECATUR        CLOUDY    20  16  84 W5        30.51R FOG     WCI  13
PEORIA         MOCLDY    20  12  71 N3        30.51R
6HR MIN TEMP:  19; 6HR MAX TEMP:  23;

LACON*         PTCLDY    11   7  85 CALM      30.52R
LINCOLN*       CLOUDY    20  16  85 CALM      30.54R
SPRINGFIELD    CLOUDY    14  11  87 W5        30.53R WCI   6
6HR MIN TEMP:  12; 6HR MAX TEMP:  18;

TAYLORVILLE      N/A     14  12  92 CALM      30.53R FOG
$$

ILZ033-039-045-046-055>057-062-063-021300-
EAST-CENTRAL ILLINOIS

CITY           SKY/WX    TMP DP  RH WIND       PRES   REMARKS
CHAMPAIGN      MOCLDY    10   7  87 W7        30.49R FOG     WCI  -1
DANVILLE*      MOCLDY    14  10  85 W6        30.47R WCI   5
RANTOUL*       MOCLDY    13   9  86 W5        30.49R WCI   5
MATTOON        MOCLDY    17  11  77 NW8       30.49S WCI   7
PARIS*         MOCLDY    12  10  91 W3        30.51S
$$

ILZ079-100>102-021300-
SOUTHWEST ILLINOIS

CITY           SKY/WX    TMP DP  RH WIND       PRES   REMARKS
BELLEVILLE     CLEAR     10   9  95 CALM      30.53S
CAHOKIA*       MOCLDY    10   7  87 CALM      30.55R FOG
SPARTA*        FOG       17  15  93 CALM      30.55R VSB<1/4
$$

ILZ064>066-069>071-074>076-080>082-084>086-088>090-092>094-021300-
SOUTH-CENTRAL ILLINOIS

CITY           SKY/WX    TMP DP  RH WIND       PRES   REMARKS
CARBONDALE     PTCLDY    22  18  85 N5        30.54R WCI  16
6HR MIN TEMP:  22; 6HR MAX TEMP:  28;

CAIRO*         PTCLDY    30  22  73 NE7       30.53R WCI  23
EFFINGHAM*     MOCLDY    11   8  85 CALM      30.54R FOG
MARION         PTCLDY    23  19  86 CALM      30.54S
MT. VERNON     PTCLDY     7   1  78 CALM      30.53S
CENTRALIA*     FOG        7   3  84 CALM      30.54R VSB<1/4
SALEM*         MOCLDY   N/A N/A N/A CALM      30.53S HAZE
METROPOLIS*    CLEAR     27  22  82 NE6       30.51F WCI  21
$$

ILZ067-068-072-073-078-083-087-091-021300-
SOUTHEAST ILLINOIS

CITY           SKY/WX    TMP DP  RH WIND       PRES   REMARKS
LAWRENCEVILLE  MOCLDY    15  12  88 NW3       30.54R FOG
FLORA*         FOG        7   4  89 CALM      30.54R VSB<1/4
FAIRFIELD*     PTCLDY    14  12  92 CALM      30.54R FOG
HARRISBURG*    PTCLDY    24  20  84 N3        30.55R
ROBINSON*      MOCLDY     9   7  92 SW3       30.54R
CARMI*         PTCLDY    24  22  93 N6        30.53S WCI  17
$$

ABBREVIATIONS USED IN REMARKS
   TC - TEMPERATURE IN CELSIUS
  WCI - WIND CHILL INDEX
   HX - HEAT INDEX
  VSB - VISIBILITY
$$




USA.gov is the U.S. government's official web portal to all federal, state and local government web resources and services.